Showing default

CONNECTA T2.1, 56210

Orbit data source: Space-Track

CONNECTA T2.1, 56210 is a payload satellite owned by Plan-S (TR) in SSO that was launched on Sat, 15 Apr 2023 UTC via an FALCON 9 launch vehicle from the Air Force Western Test Range (AFWTR). Payload-class satellites include a variety of spacecraft equipped with specific instruments for various scientific and technological missions. These include communications satellites like Starlink; space stations such as the ISS; scientific satellites like the Hubble; Earth observation satellites from companies like Planet Labs, Umbra, and HawkEye 360; GPS; miniature CubeSats for education and research; and military/defense satellites.

Loading next visibility...
Identifier
56210, 2023-054AJ
Orbit
SSO
Last TLE update
7 hours ago
Origin
Manufacturer
Plan-S
Mission
Operational Commercial Communications
Bus & Motor
CUBESAT 6U, Unknown motor
Mass
10 kg wet, ~10 kg dry
Launch date (UTC)
2023-04-15 (2 years ago)
Launch vehicle
FALCON 9
Launch site
Air Force Western Test Range (AFWTR)
Object type
Payload
Rocket body
Debris
Shape & HBR
Box + 2 Pan, 0.3 m
Radar Cross Section
0.080 m², Medium (>0.1 m² and < 1m²)

Expand to show TLE details & history

TLE from 7 hours ago
0 CONNECTA T2.1
1 56210U 23054AJ  25192.17936190  .00041169  00000-0  32486-3 0  9990
2 56210  97.3180 101.6975 0007213 144.0065 216.1685 15.71279838126331
Epoch: 2025-07-11T04:18Z
TLE epoch observation values (Epoch: 2025-07-11T04:18:16.868Z)
Latitude
-0.00001°
Longitude
107.79221°
Altitude
362.323 km
Speed
7.69 km/s
True Right ascension
06h 46m 47s
True Declination
0° 00' 00"
Sunlit
Object was in daylight at epoch
Visualization orbit readout
Latitude
-82.32788°
Longitude
-143.33252°
Altitude
386.299 km
Speed
7.675 km/s
Apparent Right ascension
12h 11m 03s
Apparent Declination
-62° 08' 57"
Sunlit
Object is in full shadow
Visualization observer readout
Local Sidereal Time
23:51:15
Azimuth
186.063° SSW
Elevation
-67.565°
Doppler factor
1
Orbital elements
Apogee altitude
356.987 km
Perigee altitude
347.278 km
Semi-major axis
6,730.269 km
Eccentricity
0.00072
Inclination
97.318°
RAAN
101.6975°
Arg. of periapsis
144.0065°
True anomaly
Unknown
Mean anomaly
216.1685°
Eccentric anomaly
Unknown
Mean motion
3.93092 °/min
Orbital period
91.58 mins
BSTAR
0.00032486
Loading maneuver chart data...
Loading SW <> Apogee altitude chart data...
Loading historical data...
Loading historical data...
Loading historical data...
Loading historical data...
Loading historical data...
Loading historical data...
Loading historical data...

CONNECTA T2.1 Visibility forecast

Observer location: undefined°, undefined°

Span
Click to sort rows by Start time (UTC) header in descending order
Start Az.
Max El. time (UTC)
Max El. Az.
Max El.
End time (UTC)
End Az.
5 mins2025-07-11 18:11:11.728Z177.305° S2025-07-11 18:14:11.728Z304.641° NW38.617°2025-07-11 18:16:11.728Z340.103° N
4 mins2025-07-12 06:51:11.728Z15.088° NNE2025-07-12 06:53:11.728Z178.277° S41.37°2025-07-12 06:55:11.728Z190.053° SSW
|